Tracking 18851 objects as of 25-Nov-2017
HD Live streaming from Space Station
objects crossing your sky now

COSMOS 1295

Track COSMOS 1295 now!
10-day predictions
COSMOS 1295 is classified as:


NORAD ID: 12681
Int'l Code: 1981-077A
Perigee: 951.2 km
Apogee: 1,016.6 km
Inclination: 82.9 °
Period: 104.6 minutes
Semi major axis: 7354 km
RCS: 2.187 m2 (large)
Launch date: August 12, 1981
Source: Commonwealth of Independent States (former USSR) (CIS)
Launch site: PLESETSK MISSILE AND SPACE COMPLEX (PKMTR)
aabbcc
Your satellite tracking list
Your tracking list is empty




NASA's NSSDC Master Catalog

Two Line Element Set (TLE):
1 12681U 81077A   17328.52700943 +.00000049 +00000-0 +34503-4 0  9994
2 12681 082.9168 290.6508 0044463 015.0476 123.4882 13.76375395822108
Source of the keplerian elements: AFSPC